EUTELSAT HOTBIRD 13C

Last updated on Wed Jul 02 2025 00:02:44 GMT+0000 (Coordinated Universal Time)

1 33459U 08065A 25182.42202095 -.00000098 00000+0 00000+0 0 9991 2 33459 2.0475 83.3946 0003259 14.8523 320.8842 1.00271689 43827
UTC large
Height (km)
Speed (km/s)
/
Latitude / Longitude
Inclination (degrees)
Orbital Period (minutes)
Azimuth
Elevation
Range (km)
Doppler Factor

Next 0 passes for location: London (51.5072 / 0.1276)

Sorry there are no passes over London.